CZ-6A DEB, 54302

Orbit data source: Space-Track

CZ-6A DEB, 54302 is space debris in SSO originally from a launch on Fri, 11 Nov 2022 UTC launched from the Taiyaun Space Center, China (TSC). Debris objects in space refer to the collection of defunct objects orbiting the Earth. Examples of debris include non-operational satellites, rocket bodies, and fragments generated from explosions, collisions, or faulty payload assembly.

Loading next visibility...
Identifier
54302, 2022-151AV
Orbit
SSO
Country
Flag of CNCN / PRC
Related business
Manufacturer
SAST
Mission
Spacecraft
Bus & Motor
Unknown
Mass
Unknown
Launch date (UTC)
2022-11-11 (3 years ago)
Launch vehicle
Unknown
Launch site
Taiyaun Space Center, China (TSC)
Object type
Payload
Rocket body
Debris
Shape & HBR
Unknown shape, 0.1 m
Radar Cross Section
Small (<0.1 m²)

Expand to show TLE details & history
Last TLE update: 19 hours ago

TLE from 19 hours ago
0 CZ-6A DEB
1 54302U 22151AV  26129.82315416  .00003060  00000-0  49258-3 0  9995
2 54302  98.8754 244.9428 0096971 320.5936  38.8240 14.69300959185061
Epoch: 2026-05-09T19:45Z
TLE epoch observation values (Epoch: 2026-05-09T19:45:20.519Z)
Latitude
-0°
Longitude
80.97224°
Altitude
613.333 km
Speed
7.581 km/s
True Right ascension
16h 19m 46s
True Declination
0° 00' 00"
Sunlit
Object was in full shadow at epoch
Visualization orbit readout
Latitude
Unknown
Longitude
Unknown
Altitude
Unknown
Speed
Unknown
Apparent Right ascension
Unknown
Apparent Declination
Unknown
Sunlit
N/A
Visualization observer readout
Local Sidereal Time
22:57:55
Azimuth
Unknown
Elevation
Unknown
Doppler factor
Unknown
Orbital elements
Apogee altitude
728.655 km
Perigee altitude
592.148 km
Semi-major axis
7,038.538 km
Eccentricity
0.0097
Inclination
98.8754°
RAAN
244.9428°
Arg. of periapsis
320.5936°
True anomaly
39.52727°
Mean anomaly
38.824°
Eccentric anomaly
39.17497°
Mean motion
3.67553 °/min
Orbital period
97.95 mins
BSTAR
0.00049258
Loading maneuver chart data...
Computing Atmospheric mass density...

Documentation

Showing up to 5 results
|